RADUGA 32 1 23448U 94087A 10066.46278762 -.00000132 00000-0 10000-3 0 2448 2 23448 10.8017 49.3949 0003152 124.9894 235.0837 1.00262385 73326 RADUGA-1 4 1 25642U 99010A 10066.58801244 .00000109 00000-0 00000-0 0 3414 2 25642 9.5057 65.2625 0003638 168.9521 191.1389 1.00211778 40367 RADUGA-1 5 1 26477U 00049A 10067.61303759 -.00000344 00000-0 10000-3 0 7823 2 26477 7.1352 63.8192 0001842 293.1749 134.0431 1.00291522 34886 RADUGA-1 7 1 28194U 04010A 10067.68157692 -.00000306 00000-0 10000-3 0 2073 2 28194 4.4759 80.0873 0005937 54.8629 11.9307 1.00396941 21792 RADUGA-1M 1 1 32373U 07058A 10067.91579436 -.00000054 00000-0 10000-3 0 6469 2 32373 0.0184 239.2560 0002315 148.4822 178.4140 1.00272217 9129